Location: Assche-ter-Heiden
(50.9174°N, 4.1574°E)
Time: 13:23:35
(UTC+00:00)

SOZ - Pass Details

Date: 20 January 2020
Orbit: 313 x 16590 km, 51.9° (Epoch: 27 February)

Event Time Altitude Azimuth Distance (km) Brightness Sun altitude
Exits shadow 06:32:20 14° 283° (WNW) 1,245 6.0 -9.8°
Maximum altitude 06:34:30 87° 6° (N) 333 3.7 -9.5°
Drops below altitude 10° 06:36:42 10° 102° (ESE) 1,238 8.2 -9.2°
Sets 06:38:38 0° 103° (ESE) 2,275 10.2 -8.9°
